Location: Young's Pond
(41.2695°N, 72.7766°W)
Time: 09:34:48
(UTC-04:00)

Spot 4 - Visible Passes

Search period start: 26 June 2016 00:00
Search period end: 06 July 2016 00:00
Orbit: 706 x 723 km, 98.4° (Epoch: 26 June)

Date Brightness Start Highest point End Pass type
(mag) Time Alt. Az. Time Alt. Az. Time Alt. Az.
26 Jun 3.8 22:52:29 41° SSE 22:54:08 73° ENE 22:58:59 10° N visible
27 Jun 6.2 00:31:38 11° WSW 00:32:37 12° W 00:34:21 10° WNW visible
27 Jun 5.3 22:00:23 16° ESE 22:02:56 24° ENE 22:06:47 10° NNE visible
27 Jun 4.8 23:39:31 33° SW 23:40:40 38° W 23:45:12 10° NNW visible
28 Jun 3.9 22:47:25 39° SE 22:49:08 65° ENE 22:53:57 10° N visible
29 Jun 6.1 00:26:34 13° WSW 00:27:32 13° W 00:29:53 10° WNW visible
29 Jun 5.5 21:55:20 14° ESE 21:57:58 22° ENE 22:01:37 10° NNE visible
29 Jun 4.6 23:34:28 36° SW 23:35:38 43° W 23:40:16 10° NNW visible
30 Jun 4.1 22:42:22 36° SE 22:44:08 58° ENE 22:48:54 10° N visible
01 Jul 6.0 00:21:30 14° WSW 00:22:27 15° W 00:25:16 10° NW visible
01 Jul 5.6 21:50:16 13° ESE 21:53:01 19° ENE 21:56:26 10° NNE visible
01 Jul 4.4 23:29:25 40° SW 23:30:36 49° W 23:35:19 10° NNW visible
02 Jul 4.2 22:37:19 33° SE 22:39:08 51° ENE 22:43:51 10° N visible
03 Jul 5.8 00:16:27 16° WSW 00:17:23 17° W 00:20:33 10° NW visible
03 Jul 5.7 21:45:14 11° E 21:48:03 18° ENE 21:51:13 10° NNE visible
03 Jul 4.3 23:24:22 43° SSW 23:25:34 55° W 23:30:21 10° NNW visible
04 Jul 4.4 22:32:16 31° ESE 22:34:08 46° ENE 22:38:47 10° N visible
05 Jul 5.7 00:11:25 18° WSW 00:12:18 19° W 00:15:47 10° NW visible
05 Jul 5.8 21:40:14 10° E 21:43:06 16° ENE 21:45:58 10° NNE visible
05 Jul 4.1 23:19:19 46° SSW 23:20:32 62° WSW 23:25:22 10° NNW visible
